User: anonymous   Login
Location: Theydon Bois
(51.6750°N, 0.1050°E)
Time: 02:29:22
(UTC+01:00)
Language:

H-2A R/B - Orbit

View from above orbital plane
View from above orbital plane
View from above satellite
View from above satellite

Ground track
Ground track

The orbit data is extracted from the following two-line orbital elements,

1 27601U 02056E   18109.63621713 +.00000027 +00000-0 +24724-4 0  9999
2 27601 098.3336 171.1888 0073407 106.1736 009.3512 14.31834581801668
Epoch (UTC): 19 April 2018 15:16:09
Eccentricity: 0.0073407
inclination: 98.3336°
perigee height: 733 km
apogee height: 838 km
right ascension of ascending node: 171.1888°
argument of perigee: 106.1736°
revolutions per day: 14.31834581
mean anomaly at epoch: 9.3512°
orbit number at epoch: 80166

The dashed part of the orbit path shows where the satellite is in the earth's shadow,  

DLR